Regional Weather Roundup
Issued by NWS New Orleans/Baton Rouge, LA

Home | Current Version | Previous Version | Text Only | Print | Product List | Glossary On
Versions: 1 2 3 4 5 6 7 8 9 10 11 12 13 14 15 16 17 18 19 20 21 22 23 24 25 26 27 28 29 30 31 32 33 34 35 36 37 38 39 40 41 42 43 44 45 46 47 48 49 50
483
ASUS44 KLIX 031105
RWRLIX
NEW ORLEANS REGIONAL WEATHER ROUNDUP
NATIONAL WEATHER SERVICE NEW ORLEANS LA
500 AM CST TUE MAR 03 2015

NOTE: "FAIR" INDICATES FEW OR NO CLOUDS BELOW 12,000 FEET WITH NO
      SIGNIFICANT WEATHER AND/OR OBSTRUCTIONS TO VISIBILITY.
      SKY/WX - SKY CONDITION AND SIGNIFICANT WEATHER.
      TMP - AIR TEMPERATURE.     DP    - DEWPOINT TEMPERATURE.
      RH  - RELATIVE HUMIDITY.   PRES  - PRESSURE.
      HI  - HEAT INDEX.          WCI   - WIND CHILL INDEX.

*  THESE STATIONS ARE NOT NWS OR FAA STATIONS AND ARE NOT UNDER
   NWS QUALITY CONTROL.

LAZ038-040-048-061>063-065>067-069-031200-
SOUTHEAST LOUISIANA

CITY           SKY/WX    TMP DP  RH WIND       PRES   REMARKS
N.O. AUDUBON   NOT AVBL
N.O. INTL ARPT FOG       66  64  93 S5        30.12S VSB 1/4
N.O. LAKEFRONT FOG       66  63  90 CALM      30.12F VSB 1/4
SLIDELL        FOG       64  64 100 S7        30.12S VSB 1/2
BATON ROUGE    FOG       57  57 100 E3        30.11S VSB 1/4
BOOTHVILLE     FOG       63  63 100 SE5       30.13S VSB 1/4
BELLE CHASSE   FOG       67  64  90 SE3       30.11F VSB 1/4
BOGALUSA*      FOG       66  64  91 S3        30.14R VSB 1/4
GALLIANO*      FOG       56  56  98 MISG      30.12S VSB<1/4
NEW ROADS*     FOG       51  51  98 CALM      30.11F VSB 1/4
GONZALES*      FOG       64  64  99 CALM      30.11S VSB 1/4
HAMMOND*       NOT AVBL
HOUMA*         HVY RAIN  61  61 100 CALM      30.11S VSB 1/4
PORT FOURCHON* CLOUDY    66  64  94 E7        30.15R FOG

$$

MSZ070-080>082-031200-
SOUTHERN MISSISSIPPI

CITY           SKY/WX    TMP DP  RH WIND       PRES   REMARKS
MCCOMB         FOG       61  60  97 CALM      30.11S VSB 1/4
GULFPORT       FOG       63  63 100 S5        30.13R VSB 1/4
BILOXI         FOG       63  63 100 S7        30.13R VSB 3/4
PASCAGOULA     FOG       63  63 100 S7        30.14S VSB 1

$$

COASTAL OBSERVATIONS
LAKE AND NEARSHORE STATIONS

STATION/POSITION TIME  TEMP    WIND        PRES    WAVE
                       AIR SEA DIR/SP/G            HT/PER
                 (UTC) (F)     (DEG/KT/KT) (MB)    (FT/S)
PASCAGOULA       1100          140/  6/  9   N/A
WAVELAND YACHT   1100          160/  4/  5   N/A
GRAND ISLE       1100          120/  3/  5   N/A
SOUTHWEST PASS   1100          120/ 12/ 12   N/A
NEW CANAL        1100           CALM  /  2   N/A
SHELL BEACH      1100          150/  7/ 10   N/A

OFFSHORE STATIONS

STATION/POSITION TIME  TEMP    WIND        PRES    WAVE
                       AIR SEA DIR/SP/G            HT/PER
                 (UTC) (F)     (DEG/KT/KT) (MB)    (FT/S)
64 S DAUPHIN ISL 1015   70 71  140/ 10/ 12 1020.8    2/ 7

$$




USA.gov is the U.S. government's official web portal to all federal, state and local government web resources and services.